Regional Weather Roundup
Issued by NWS

Home | Current Version | Previous Version | Graphics & Text | Print | Product List | Glossary On
Versions: 1 2 3 4 5 6 7 8 9 10 11 12 13 14 15 16 17 18 19 20 21 22 23 24 25 26 27 28 29 30 31 32 33 34 35 36 37 38 39 40 41 42 43 44 45 46 47 48 49 50
000
ASUS43 KOAX 060810
RWRNE

WEATHER ROUNDUP FOR NEBRASKA
NATIONAL WEATHER SERVICE OMAHA NE
300 AM CDT WED MAY 06 2015

NOTES: SATELLITE DATA IS BEING USED TO AUGMENT CLOUD COVER ABOVE
       12000 FEET.
       "FAIR" INDICATES FEW OR NO CLOUDS BELOW 12,000 FEET WITH NO
       SIGNIFICANT WEATHER AND/OR OBSTRUCTIONS TO VISIBILITY.

  * THESE STATIONS DO NOT REPORT WEATHER SUCH AS RAIN...SNOW OR FOG.

NEZ001>004-019>022-054>056-060900-
NEBRASKA PANHANDLE

CITY           SKY/WX    TMP DP  RH WIND       PRES   REMARKS
SCOTTSBLUFF    LGT RAIN  52  32  46 E9        29.73F
ALLIANCE       LGT RAIN  52  52 100 SE10      29.73
CHADRON        LGT RAIN  54  51  90 SE5       29.75F
KIMBALL        CLOUDY    50  50 100 E10       29.70F FOG
SIDNEY         LGT RAIN  53  52  96 SE14      29.71F VSB 3/4
$$

NEZ057>060-069>072-079>082-060900-
SOUTHWEST NEBRASKA

CITY           SKY/WX    TMP DP  RH WIND       PRES   REMARKS
NORTH PLATTE   CLOUDY    59  56  89 SE9       29.76F
IMPERIAL       CLOUDY    54  52  93 SE16      29.73F
LEXINGTON      CLOUDY    60  58  94 SE15      29.79F
MCCOOK         CLOUDY    60  57  89 SE16G24   29.73F
OGALLALA       CLOUDY    56  55  95 SE13G20   29.73F
$$

NEZ005>010-023>029-035>040-094-060900-
NORTH CENTRAL NEBRASKA

CITY           SKY/WX    TMP DP  RH WIND       PRES   REMARKS
VALENTINE      CLOUDY    57  55  93 SE13      29.79F
AINSWORTH      LGT RAIN  57  56  97 SE15      29.80F
BROKEN BOW     CLOUDY    59  57  93 SE16      29.80F
O`NEILL        CLOUDY    61  58  90 SE12G20   29.85F
ORD            CLOUDY    59  56  89 SE13      29.82F
THEDFORD       RAIN      57  56  97 SE15      29.78F
$$

NEZ041-046>049-061>064-073>077-083>087-060900-
SOUTH CENTRAL NEBRASKA

CITY           SKY/WX    TMP DP  RH WIND       PRES   REMARKS
GRAND ISLAND   CLOUDY    61  57  87 SE14G25   29.85F
AURORA         CLOUDY    61  61 100 SE12      29.86F
HASTINGS       CLOUDY    61  58  90 SE15      29.84F
HEBRON         CLOUDY    64  58  80 SE16G25   29.86F
HOLDREGE       HVY RAIN  59  58  94 SE17G24   29.80F
KEARNEY *      CLOUDY    61  57  88 SE16G24   29.82F
YORK           CLOUDY    63  61  94 SE15G21   29.87F
$$

NEZ011>018-030>034-042>045-060900-
NORTHEAST NEBRASKA

CITY           SKY/WX    TMP DP  RH WIND       PRES   REMARKS
NORFOLK        CLOUDY    62  60  93 SE10      29.89F
ALBION         CLOUDY    60  58  93 SE12      29.87F
BLAIR          CLOUDY    65  59  80 S13G24    29.93F
COLUMBUS *     CLOUDY    63  55  77 SE12      29.91F
FREMONT        CLOUDY    66  59  79 SE13G25   29.92F
TEKAMAH        CLOUDY    66  59  78 S17       29.93F
WAYNE          CLOUDY    64  59  86 SE14      29.92F
$$

NEZ050>053-065>068-078-088>093-060900-
SOUTHEAST NEBRASKA

CITY           SKY/WX    TMP DP  RH WIND       PRES   REMARKS
LINCOLN        CLOUDY    65  60  84 SE17      29.91F
OMAHA EPPLEY   LGT RAIN  65  62  90 S20       29.94F
BEATRICE       MOCLDY    64  60  88 SE9       29.89F
FALLS CITY     CLOUDY    62  62 100 E7        29.92F
NEBRASKA CITY  LGT RAIN  63  62  98 S8        29.94F
PLATTSMOUTH    CLOUDY    63  60  91 SE8       29.93F
$$

NEZ044-045-051>053-067-060900-
OMAHA AREA

CITY           SKY/WX    TMP DP  RH WIND       PRES   REMARKS
OMAHA EPPLEY   LGT RAIN  65  62  90 S20       29.94F
BLAIR          CLOUDY    65  59  80 S13G24    29.93F
FREMONT        CLOUDY    66  59  79 SE13G25   29.92F
MILLARD        CLOUDY    65  61  86 SE10G18   29.93F
OFFUTT AFB     CLOUDY    63  62  94 SE8       29.93F
PLATTSMOUTH    CLOUDY    63  60  91 SE8       29.93F
$$



USA.gov is the U.S. government's official web portal to all federal, state and local government web resources and services.